              h    h  m       。  ,                      ,  / PA 。  m1      。

2006 Mar.  1 18  13 16.40  +55 19.4   1.641  2.343    65.8 / 321  17.3  121  .04

           2 18  13 11.48  +56 10.5   1.633  2.336    66.3 / 320  17.2  115  .11

           3 18  13 06.25  +57 00.8   1.626  2.328    66.8 / 318  17.2  106  .19

           4 18  13 00.70  +57 50.3   1.620  2.320    67.1 / 317  17.2   98  .28

           5 18  12 54.82  +58 38.7   1.615  2.312    67.4 / 315  17.2   89  .39

           6 18  12 48.58  +59 26.0   1.610  2.304    67.7 / 313  17.2   80  .49

           7 18  12 41.99  +60 11.9   1.607  2.296    67.8 / 312  17.1   72  .59

           8 18  12 35.03  +60 56.3   1.603  2.288    67.9 / 310  17.1   64  .69

           9 18  12 27.69  +61 38.9   1.601  2.281    67.9 / 308  17.1   58  .77

          10 18  12 19.97  +62 19.6   1.599  2.273    67.9 / 306  17.1   54  .85

          11 18  12 11.86  +62 58.2   1.598  2.265    67.7 / 303  17.1   52  .91

          12 18  12 03.39  +63 34.5   1.598  2.258    67.5 / 301  17.1   53  .96

          13 18  11 54.54  +64 08.4   1.599  2.250    67.3 / 299  17.0   55  .99

          14 18  11 45.35  +64 39.6   1.600  2.243    66.9 / 296  17.0   60 1.00

          15 18  11 35.82  +65 08.0   1.602  2.235    66.5 / 294  17.0   67  .99

          16 18  11 26.00  +65 33.4   1.604  2.227    66.0 / 291  17.0   74  .97

          17 18  11 15.92  +65 55.9   1.608  2.220    65.5 / 288  17.0   83  .93

          18 18  11 05.62  +66 15.2   1.612  2.213    64.9 / 286  17.0   92  .87

          19 18  10 55.15  +66 31.2   1.616  2.205    64.3 / 283  17.0  101  .80

          20 18  10 44.57  +66 44.1   1.621  2.198    63.6 / 280  17.0  110  .71

          21 18  10 33.92  +66 53.6   1.627  2.190    62.8 / 277  17.0  119  .61

          22 18  10 23.28  +67 00.0   1.633  2.183    62.0 / 274  17.0  126  .51

          23 18  10 12.70  +67 03.2   1.640  2.176    61.2 / 271  17.0  132  .40

          24 18  10 02.24  +67 03.3   1.648  2.169    60.3 / 268  16.9  134  .29

          25 18  09 51.94  +67 00.4   1.656  2.162    59.4 / 266  16.9  133  .19

          26 18  09 41.86  +66 54.8   1.665  2.154    58.5 / 263  16.9  128  .10

          27 18  09 32.05  +66 46.4   1.674  2.147    57.5 / 260  16.9  120  .04

          28 18  09 22.53  +66 35.6   1.684  2.140    56.5 / 258  16.9  109  .01

          29 18  09 13.34  +66 22.5   1.694  2.133    55.5 / 255  16.9   98  .00

          30 18  09 04.50  +66 07.2   1.704  2.126    54.5 / 253  16.9   86  .03

          31 18  08 56.02  +65 50.1   1.715  2.119    53.5 / 250  16.9   75  .08

     Apr.  1 18  08 47.92  +65 31.2   1.727  2.112    52.5 / 248  16.9   64  .15

NAKANO

         **** Don't distribute anyone except personal use only ****

                (C) Copyright 2006 OAA/ComputingSection

write mail from CFAD0::NAKANO on 2006-03-04 04:22:57(JST).

    C/2006 CK10 (Catalina)

Epoch 2006 July 4.0 TT = JDT 2453920.5  

T 2006 July 3.27741 TT                                  Nakano

q   1.7521796            (2000.0)            P               Q

z  +0.0045990      Peri.  143.45537     -0.07913093     +0.84796788

 +/-0.0000043      Node   243.81007     +0.71879810     +0.41281818

e   0.9919417      Incl.  144.26264     +0.69070080     -0.33246297

From 237 observations 2006 Feb. 4-Sept. 19, mean residual 0".53.

   (1/a)org.= +0.004653, (1/a)fut.= +0.005278 (+/-0.000004), Q= 7.



NAKANO

         **** Don't distribute anyone except personal use only ****

                (C) Copyright 2006 OAA/ComputingSection

write mail from CFAD0::NAKANO on 2006-09-25 05:53:58(JST).

 



    C/2006 CK10 (Catalina)

Epoch 2006 July 4.0 TT = JDT 2453920.5  

T 2006 July 3.28227 TT                                  Nakano

q   1.7521290            (2000.0)            P               Q

z  +0.0046283      Peri.  143.45868     -0.07908631     +0.84797247

 +/-0.0000275      Node   243.81029     +0.71882238     +0.41277867

e   0.9918906      Incl.  144.26277     +0.69068063     -0.33250032

From 223 observations 2006 Feb. 4-May 9, mean residual 0".52.

   (1/a)org.= +0.004683, (1/a)fut.= +0.005307 (+/-0.000028), Q= 5.



NAKANO

         **** Don't distribute anyone except personal use only ****

                (C) Copyright 2006 OAA/ComputingSection

write mail from CFAD0::NAKANO on 2006-06-20 02:59:54(JST).





    C/2006 CK10 (Catalina)

T 2006 July 3.27980 TT                                  Nakano

q   1.7521797            (2000.0)            P               Q

z  +0.0046429      Peri.  143.45601     -0.07912018     +0.84796989

 +/-0.0000547      Node   243.80996     +0.71880336     +0.41280797

e   0.9918649      Incl.  144.26273     +0.69069655     -0.33247050

From 162 observations 2006 Feb. 4-Apr. 3.



NAKANO

         **** Don't distribute anyone except personal use only ****

                (C) Copyright 2006 OAA/ComputingSection

write mail from CFAD0::NAKANO on 2006-04-06 06:07:49(JST).

 



◎C/2006 CK10の軌道と予報位置です



 上尾の門田健一氏から3月3日の観測が報告されました.氏のCCD全光度は

17.5等でした.



    C/2006 CK10 (Catalina)

T 2006 July 2.67696 TT                                  Nakano

q   1.7568244            (2000.0)            P               Q

                   Peri.  143.11964     -0.08373030     +0.84743593

                   Node   243.79333     +0.71628732     +0.41693170

e   1.0            Incl.  144.24524     +0.69276383     -0.32866443

From 66 observations 2006 Feb. 4-Mar. 3.

 

Date/        TT  R.A.(2000) Decl.     Delta   r     Daily motion  Mag.  Moon Age

              h    h  m       。  ,                      ,  / PA 。  m1      。

2006 Mar.  1 18  13 16.40  +55 19.4   1.641  2.343    65.8 / 321  17.3  121  .04

           2 18  13 11.48  +56 10.5   1.633  2.336    66.3 / 320  17.2  115  .11

           3 18  13 06.25  +57 00.8   1.626  2.328    66.8 / 318  17.2  106  .19

           4 18  13 00.70  +57 50.3   1.620  2.320    67.1 / 317  17.2   98  .28

           5 18  12 54.82  +58 38.7   1.615  2.312    67.4 / 315  17.2   89  .39

           6 18  12 48.58  +59 26.0   1.610  2.304    67.7 / 313  17.2   80  .49

           7 18  12 41.99  +60 11.9   1.607  2.296    67.8 / 312  17.1   72  .59

           8 18  12 35.03  +60 56.3   1.603  2.288    67.9 / 310  17.1   64  .69

           9 18  12 27.69  +61 38.9   1.601  2.281    67.9 / 308  17.1   58  .77

          10 18  12 19.97  +62 19.6   1.599  2.273    67.9 / 306  17.1   54  .85

          11 18  12 11.86  +62 58.2   1.598  2.265    67.7 / 303  17.1   52  .91

          12 18  12 03.39  +63 34.5   1.598  2.258    67.5 / 301  17.1   53  .96

          13 18  11 54.54  +64 08.4   1.599  2.250    67.3 / 299  17.0   55  .99

          14 18  11 45.35  +64 39.6   1.600  2.243    66.9 / 296  17.0   60 1.00

          15 18  11 35.82  +65 08.0   1.602  2.235    66.5 / 294  17.0   67  .99

          16 18  11 26.00  +65 33.4   1.604  2.227    66.0 / 291  17.0   74  .97

          17 18  11 15.92  +65 55.9   1.608  2.220    65.5 / 288  17.0   83  .93

          18 18  11 05.62  +66 15.2   1.612  2.213    64.9 / 286  17.0   92  .87

          19 18  10 55.15  +66 31.2   1.616  2.205    64.3 / 283  17.0  101  .80

          20 18  10 44.57  +66 44.1   1.621  2.198    63.6 / 280  17.0  110  .71

          21 18  10 33.92  +66 53.6   1.627  2.190    62.8 / 277  17.0  119  .61

          22 18  10 23.28  +67 00.0   1.633  2.183    62.0 / 274  17.0  126  .51

          23 18  10 12.70  +67 03.2   1.640  2.176    61.2 / 271  17.0  132  .40

          24 18  10 02.24  +67 03.3   1.648  2.169    60.3 / 268  16.9  134  .29

          25 18  09 51.94  +67 00.4   1.656  2.162    59.4 / 266  16.9  133  .19

          26 18  09 41.86  +66 54.8   1.665  2.154    58.5 / 263  16.9  128  .10

          27 18  09 32.05  +66 46.4   1.674  2.147    57.5 / 260  16.9  120  .04

          28 18  09 22.53  +66 35.6   1.684  2.140    56.5 / 258  16.9  109  .01

          29 18  09 13.34  +66 22.5   1.694  2.133    55.5 / 255  16.9   98  .00

          30 18  09 04.50  +66 07.2   1.704  2.126    54.5 / 253  16.9   86  .03

          31 18  08 56.02  +65 50.1   1.715  2.119    53.5 / 250  16.9   75  .08

     Apr.  1 18  08 47.92  +65 31.2   1.727  2.112    52.5 / 248  16.9   64  .15

NAKANO

         **** Don't distribute anyone except personal use only ****

                (C) Copyright 2006 OAA/ComputingSection

write mail from CFAD0::NAKANO on 2006-03-04 04:22:57(JST).





戻ります。